Terminal Aerodrome Forecast
Issued by NWS

Current Version | Previous Version | Graphics & Text | Print | Product List | Glossary On
Versions: 1 2 3 4 5 6 7 8 9 10 11 12 13 14 15 16 17 18
000
FTUS41 KILN 040400 AAA
TAFLCK
TAF AMD
KLCK 040421Z 0404/0424 00000KT 2SM BR BKN120
     FM041300 34005KT P6SM SKC
     FM041800 32007KT P6SM SCT050=

USA.gov is the U.S. government's official web portal to all federal, state and local government web resources and services.